When you browse on this site, cookies collect data to enhance your experience and personalize the content and advertising you see.
Visit our Privacy Policy to learn more. By continuing to use the site, you agree to this use of cookies and data.

Hourly Weather Vatican

Today, 26 September, Saturday

Time Temperature Precipitation Wind Pressure Humidity
00:00 +18°C° 1.1 mm 13 mps 748 mmHg 59%
01:00 +18°C° 0 mm 12 mps 748 mmHg 58%
02:00 +18°C° 0.8 mm 11 mps 747 mmHg 59%
03:00 +17°C° 0.8 mm 11 mps 747 mmHg 59%
04:00 +17°C° 0.8 mm 11 mps 746 mmHg 59%
05:00 +17°C° 0.7 mm 9 mps 746 mmHg 59%
06:00 +17°C° 0.7 mm 8 mps 746 mmHg 59%
07:00 +17°C° 0 mm 5 mps 746 mmHg 57%
08:00 +19°C° 0.2 mm 5 mps 747 mmHg 50%
09:00 +20°C° 0.2 mm 5 mps 748 mmHg 44%
10:00 +21°C° 0.2 mm 5 mps 748 mmHg 37%
11:00 +21°C° 0.2 mm 7 mps 748 mmHg 37%
12:00 +22°C° 0.2 mm 8 mps 749 mmHg 36%
13:00 +22°C° 0 mm 8 mps 749 mmHg 39%
14:00 +22°C° 0.1 mm 8 mps 749 mmHg 42%
15:00 +22°C° 0.1 mm 8 mps 749 mmHg 45%
16:00 +21°C° 0.1 mm 8 mps 749 mmHg 48%
17:00 +20°C° 0.1 mm 8 mps 749 mmHg 50%
18:00 +18°C° 0.1 mm 9 mps 750 mmHg 53%
19:00 +18°C° 0.1 mm 10 mps 750 mmHg 56%
20:00 +18°C° 0.2 mm 10 mps 750 mmHg 56%
21:00 +18°C° 0.2 mm 10 mps 750 mmHg 56%
22:00 +18°C° 0.2 mm 10 mps 751 mmHg 57%
23:00 +17°C° 0.2 mm 10 mps 751 mmHg 58%

Tomorrow, 27 September, Sunday

Time Temperature Precipitation Wind Pressure Humidity
00:00 +17°C° 0.2 mm 9 mps 751 mmHg 59%
01:00 +17°C° 0.2 mm 9 mps 751 mmHg 60%
02:00 +16°C° 0 mm 7 mps 751 mmHg 63%
03:00 +15°C° 0 mm 5 mps 751 mmHg 65%
04:00 +16°C° 0 mm 3 mps 751 mmHg 68%
05:00 +16°C° 0.1 mm 3 mps 751 mmHg 65%
06:00 +17°C° 0.1 mm 3 mps 751 mmHg 62%
07:00 +17°C° 0.1 mm 3 mps 751 mmHg 59%
08:00 +16°C° 2 mm 5 mps 750 mmHg 64%
09:00 +16°C° 2 mm 8 mps 750 mmHg 70%
10:00 +16°C° 2 mm 10 mps 750 mmHg 75%
11:00 +17°C° 6 mm 11 mps 749 mmHg 78%
12:00 +18°C° 6 mm 12 mps 748 mmHg 81%
13:00 +18°C° 6 mm 13 mps 747 mmHg 83%
14:00 +18°C° 2.9 mm 13 mps 747 mmHg 81%
15:00 +18°C° 2.9 mm 13 mps 747 mmHg 79%
16:00 +17°C° 2.9 mm 13 mps 747 mmHg 76%
17:00 +17°C° 1.4 mm 11 mps 747 mmHg 75%
18:00 +16°C° 1.4 mm 9 mps 747 mmHg 74%
19:00 +16°C° 1.4 mm 7 mps 748 mmHg 73%
20:00 +16°C° 0.4 mm 7 mps 749 mmHg 73%
21:00 +16°C° 0.4 mm 8 mps 750 mmHg 73%
22:00 +16°C° 0.4 mm 8 mps 751 mmHg 73%
23:00 +16°C° 0.6 mm 7 mps 751 mmHg 73%

Day after tomorrow, 28 September, Monday

Time Temperature Precipitation Wind Pressure Humidity
00:00 +16°C° 0.6 mm 6 mps 752 mmHg 74%
01:00 +16°C° 0.6 mm 6 mps 752 mmHg 74%
02:00 +16°C° 0.6 mm 6 mps 752 mmHg 73%
03:00 +16°C° 0.6 mm 5 mps 752 mmHg 72%
04:00 +16°C° 0.6 mm 5 mps 753 mmHg 71%
05:00 +16°C° 0.8 mm 6 mps 753 mmHg 73%
06:00 +16°C° 0.8 mm 6 mps 753 mmHg 74%
07:00 +16°C° 0.8 mm 7 mps 754 mmHg 75%
08:00 +17°C° 1.3 mm 7 mps 754 mmHg 73%
09:00 +17°C° 1.3 mm 7 mps 754 mmHg 72%
10:00 +18°C° 1.3 mm 7 mps 754 mmHg 70%
11:00 +18°C° 1.4 mm 8 mps 755 mmHg 69%
12:00 +19°C° 1.4 mm 9 mps 755 mmHg 68%
13:00 +19°C° 1.4 mm 9 mps 755 mmHg 66%
14:00 +19°C° 0.9 mm 9 mps 755 mmHg 66%
15:00 +20°C° 0.9 mm 8 mps 755 mmHg 67%
16:00 +20°C° 0.9 mm 8 mps 755 mmHg 67%
17:00 +20°C° 0.6 mm 8 mps 755 mmHg 68%
18:00 +18°C° 0.6 mm 7 mps 756 mmHg 70%
19:00 +18°C° 0.6 mm 7 mps 756 mmHg 71%
20:00 +18°C° 0.3 mm 7 mps 756 mmHg 71%
21:00 +19°C° 0.3 mm 6 mps 757 mmHg 72%
22:00 +19°C° 0.3 mm 5 mps 757 mmHg 72%
23:00 +19°C° 0 mm 5 mps 757 mmHg 72%

29 September, Tuesday

Time Temperature Precipitation Wind Pressure Humidity
00:00 +18°C° 0 mm 4 mps 758 mmHg 72%
01:00 +18°C° 0 mm 3 mps 758 mmHg 72%
02:00 +18°C° 0 mm 3 mps 758 mmHg 73%
03:00 +17°C° 0 mm 3 mps 758 mmHg 75%
04:00 +17°C° 0 mm 4 mps 758 mmHg 76%
05:00 +17°C° 0 mm 3 mps 758 mmHg 76%
06:00 +17°C° 0 mm 3 mps 759 mmHg 76%
07:00 +17°C° 0 mm 3 mps 759 mmHg 76%
08:00 +18°C° 0 mm 3 mps 759 mmHg 70%
09:00 +19°C° 0 mm 2 mps 759 mmHg 64%
10:00 +21°C° 0 mm 2 mps 760 mmHg 58%
11:00 +23°C° 0 mm 2 mps 760 mmHg 55%
12:00 +22°C° 0 mm 3 mps 760 mmHg 53%
13:00 +24°C° 0 mm 3 mps 760 mmHg 50%
14:00 +23°C° 0 mm 4 mps 760 mmHg 51%
15:00 +23°C° 0 mm 4 mps 760 mmHg 52%
16:00 +22°C° 0 mm 5 mps 760 mmHg 53%
17:00 +22°C° 0 mm 5 mps 760 mmHg 56%
18:00 +21°C° 0 mm 5 mps 760 mmHg 58%
19:00 +20°C° 0 mm 4 mps 761 mmHg 61%
20:00 +20°C° 0 mm 4 mps 761 mmHg 62%
21:00 +20°C° 0 mm 4 mps 761 mmHg 63%
22:00 +19°C° 0 mm 4 mps 761 mmHg 64%
23:00 +19°C° 0 mm 3 mps 761 mmHg 64%

30 September, Wednesday

Time Temperature Precipitation Wind Pressure Humidity
00:00 +18°C° 0 mm 3 mps 761 mmHg 64%
01:00 +18°C° 0 mm 3 mps 761 mmHg 64%
02:00 +18°C° 0 mm 3 mps 760 mmHg 65%
03:00 +17°C° 0 mm 3 mps 760 mmHg 66%
04:00 +17°C° 0 mm 2 mps 760 mmHg 66%
05:00 +17°C° 0 mm 2 mps 760 mmHg 67%
06:00 +17°C° 0 mm 2 mps 760 mmHg 67%
07:00 +17°C° 0 mm 2 mps 760 mmHg 67%
08:00 +19°C° 0 mm 2 mps 760 mmHg 62%
09:00 +21°C° 0 mm 1 mps 760 mmHg 57%
10:00 +23°C° 0 mm 1 mps 760 mmHg 52%
11:00 +23°C° 0 mm 1 mps 759 mmHg 51%
12:00 +24°C° 0 mm 1 mps 759 mmHg 49%
13:00 +24°C° 0 mm 1 mps 759 mmHg 47%
14:00 +24°C° 0 mm 2 mps 759 mmHg 51%
15:00 +24°C° 0 mm 2 mps 758 mmHg 55%
16:00 +22°C° 0 mm 3 mps 758 mmHg 59%
17:00 +22°C° 0 mm 3 mps 758 mmHg 63%
18:00 +21°C° 0 mm 2 mps 758 mmHg 67%
19:00 +20°C° 0 mm 2 mps 758 mmHg 71%
20:00 +20°C° 0 mm 2 mps 758 mmHg 73%
21:00 +20°C° 0 mm 2 mps 759 mmHg 75%
22:00 +20°C° 0 mm 2 mps 759 mmHg 76%
23:00 +19°C° 0 mm 2 mps 758 mmHg 77%

1 October, Thursday

Time Temperature Precipitation Wind Pressure Humidity
00:00 +19°C° 0 mm 2 mps 758 mmHg 77%
01:00 +18°C° 0 mm 2 mps 758 mmHg 78%
02:00 +18°C° 0 mm 2 mps 758 mmHg 78%
03:00 +18°C° 0 mm 2 mps 757 mmHg 78%
04:00 +18°C° 0 mm 2 mps 757 mmHg 79%
05:00 +18°C° 0 mm 2 mps 757 mmHg 78%
06:00 +18°C° 0 mm 2 mps 757 mmHg 77%
07:00 +18°C° 0 mm 2 mps 757 mmHg 77%
08:00 +20°C° 0 mm 1 mps 757 mmHg 69%
09:00 +21°C° 0 mm 1 mps 757 mmHg 62%
10:00 +23°C° 0 mm 1 mps 757 mmHg 55%
11:00 +23°C° 0 mm 1 mps 757 mmHg 53%
12:00 +24°C° 0 mm 2 mps 756 mmHg 50%
13:00 +25°C° 0 mm 2 mps 756 mmHg 48%
14:00 +24°C° 0 mm 2 mps 756 mmHg 50%
15:00 +24°C° 0 mm 3 mps 756 mmHg 52%
16:00 +24°C° 0 mm 3 mps 756 mmHg 54%
17:00 +22°C° 0 mm 3 mps 756 mmHg 58%
18:00 +21°C° 0 mm 3 mps 756 mmHg 63%
19:00 +21°C° 0 mm 3 mps 756 mmHg 68%
20:00 +21°C° 0 mm 3 mps 756 mmHg 70%
21:00 +20°C° 0 mm 3 mps 756 mmHg 72%
22:00 +20°C° 0 mm 3 mps 756 mmHg 74%
23:00 +20°C° 0.1 mm 3 mps 756 mmHg 75%
Show more